Weather History for Vinton, IA

Change the Weather History Date:

Tuesday, September 24, 2013

  Actual Average Record
Temperature  
Mean Temperature 64 °F -  
Max Temperature 77 °F 69 °F 89 °F (1984)
Min Temperature 51 °F 44 °F 30 °F (1989)
Degree Days  
Heating Degree Days 1    
Growing Degree Days 14 (Base 50)    
Moisture  
Dew Point 49 °F    
Average Humidity 64    
Maximum Humidity 82    
Minimum Humidity 35    
Precipitation  
Precipitation 0.00 in - - ()
Sea Level Pressure  
Sea Level Pressure 29.93 in    
Wind  
Wind Speed 6 mph (East)    
Max Wind Speed 14 mph    
Max Gust Speed 18 mph    
Visibility 10 miles    
Events      
Averages and records for this station are not official NWS values.
T = Trace of Precipitation, MM = Missing Value Source: NWS Daily Summary

Daily Weather History Graph

Daily Weather History Graph

Search for Another Location

Airport:

Trip Planner

Search our weather history database for the weather conditions in past years. The results will help you decide how hot, cold, wet, or windy it might be!

Date:

Astronomy

Sep. 24, 2013 Rise Set
Actual Time 6:57 AM CDT 7:01 PM CDT
Civil Twilight 6:29 AM CDT 7:29 PM CDT
Nautical Twilight 5:57 AM CDT 8:01 PM CDT
Astronomical Twilight 5:23 AM CDT 8:35 PM CDT
Moon 10:13 PM CDT (9/24) 12:18 PM CDT (9/24)
Length of Visible Light 12h 59m
Length of Day
12h 03m
Waning Gibbous, 73% of the Moon is Illuminated
Sep 24
Waning Gibbous
Sep 26
Last Quarter
Oct 4
New
Oct 11
First Quarter
Oct 18
Full

Hourly Weather History & Observations

Time (CDT) Temp. Dew Point Humidity Pressure Visibility Wind Dir Wind Speed Gust Speed Precip Events Conditions
12:15 AM 56.7 °F 49.1 °F 76% 29.95 in 10.0 mi ESE 5.8 mph - N/A   Clear
12:35 AM 56.7 °F 49.5 °F 77% 29.95 in 10.0 mi ESE 8.1 mph - N/A   Clear
12:55 AM 56.7 °F 49.3 °F 76% 29.95 in 10.0 mi Calm Calm - N/A   Clear
1:15 AM 56.5 °F 49.3 °F 77% 29.96 in 10.0 mi SE 3.5 mph - N/A   Clear
1:35 AM 54.1 °F 47.8 °F 79% 29.96 in 10.0 mi Calm Calm - N/A   Clear
1:55 AM 51.8 °F 46.4 °F 82% 29.96 in 10.0 mi East 3.5 mph - N/A   Clear
2:15 AM 51.8 °F 46.4 °F 82% 29.96 in 10.0 mi East 4.6 mph - N/A   Clear
2:35 AM 54.1 °F 48.2 °F 80% 29.95 in 10.0 mi East 5.8 mph - N/A   Clear
2:55 AM 53.6 °F 47.7 °F 80% 29.95 in 10.0 mi ESE 4.6 mph - N/A   Clear
3:15 AM 52.9 °F 46.9 °F 80% 29.95 in 10.0 mi East 4.6 mph - N/A   Clear
3:35 AM 52.9 °F 47.1 °F 81% 29.94 in 10.0 mi ESE 4.6 mph - N/A   Clear
3:55 AM 52.9 °F 46.8 °F 80% 29.94 in 10.0 mi ESE 3.5 mph - N/A   Clear
4:15 AM 52.2 °F 46.4 °F 81% 29.94 in 10.0 mi ESE 4.6 mph - N/A   Clear
4:35 AM 51.8 °F 45.9 °F 80% 29.94 in 10.0 mi ESE 4.6 mph - N/A   Clear
4:55 AM 51.8 °F 45.7 °F 80% 29.94 in 10.0 mi East 3.5 mph - N/A   Clear
5:15 AM 51.8 °F 46.0 °F 81% 29.94 in 10.0 mi ESE 4.6 mph - N/A   Clear
5:35 AM 51.8 °F 46.0 °F 81% 29.94 in 10.0 mi East 4.6 mph - N/A   Clear
5:55 AM 51.8 °F 46.2 °F 81% 29.94 in 10.0 mi ESE 4.6 mph - N/A   Clear
6:15 AM 51.8 °F 46.4 °F 82% 29.94 in 10.0 mi ESE 5.8 mph - N/A   Clear
6:35 AM 51.8 °F 46.4 °F 82% 29.94 in 10.0 mi ESE 5.8 mph - N/A   Clear
6:55 AM 51.8 °F 46.2 °F 81% 29.94 in 10.0 mi ESE 5.8 mph - N/A   Clear
7:15 AM 51.8 °F 46.4 °F 82% 29.94 in 10.0 mi ESE 5.8 mph - N/A   Clear
7:35 AM 52.2 °F 46.4 °F 81% 29.94 in 10.0 mi ESE 4.6 mph - N/A   Clear
7:55 AM 54.1 °F 47.7 °F 79% 29.94 in 10.0 mi ESE 6.9 mph - N/A   Clear
8:15 AM 56.7 °F 49.3 °F 76% 29.95 in 10.0 mi ESE 8.1 mph - N/A   Clear
8:35 AM 56.7 °F 48.2 °F 73% 29.95 in 10.0 mi ESE 8.1 mph - N/A   Clear
8:55 AM 59.2 °F 49.5 °F 70% 29.95 in 10.0 mi ESE 8.1 mph - N/A   Clear
9:15 AM 61.7 °F 50.2 °F 66% 29.95 in 10.0 mi ESE 8.1 mph - N/A   Clear
9:35 AM 61.7 °F 48.9 °F 63% 29.95 in 10.0 mi East 8.1 mph - N/A   Clear
9:55 AM 63.0 °F 49.5 °F 61% 29.95 in 10.0 mi East 10.4 mph - N/A   Clear
10:15 AM 64.6 °F 49.8 °F 59% 29.95 in 10.0 mi ESE 9.2 mph - N/A   Clear
10:35 AM 66.7 °F 50.7 °F 56% 29.95 in 10.0 mi East 9.2 mph - N/A   Clear
10:55 AM 69.3 °F 51.6 °F 53% 29.95 in 10.0 mi ESE 9.2 mph - N/A   Clear
11:15 AM 71.8 °F 52.9 °F 51% 29.95 in 10.0 mi ESE 10.4 mph - N/A   Clear
11:35 AM 71.8 °F 53.1 °F 52% 29.94 in 10.0 mi ESE 9.2 mph - N/A   Clear
11:55 AM 71.8 °F 52.3 °F 50% 29.93 in 10.0 mi ESE 11.5 mph - N/A   Clear
12:15 PM 71.8 °F 52.2 °F 50% 29.93 in 10.0 mi ESE 10.4 mph - N/A   Clear
12:55 PM 77.0 °F 53.2 °F 44% 29.92 in 10.0 mi East 13.8 mph - N/A   Clear
1:15 PM 74.3 °F 51.3 °F 44% 29.92 in 10.0 mi ESE 10.4 mph 16.1 mph N/A   Clear
1:35 PM 74.7 °F 47.7 °F 38% 29.91 in 10.0 mi East 12.7 mph - N/A   Clear
1:55 PM 77.0 °F 47.5 °F 35% 29.90 in 10.0 mi East 11.5 mph 18.4 mph N/A   Clear
2:15 PM 77.0 °F 48.7 °F 37% 29.90 in 10.0 mi ESE 13.8 mph 18.4 mph N/A   Clear
2:35 PM 76.6 °F 48.6 °F 37% 29.90 in 10.0 mi ESE 11.5 mph 16.1 mph N/A   Clear
2:55 PM 74.8 °F 47.5 °F 38% 29.91 in 10.0 mi ESE 10.4 mph - N/A   Clear
3:15 PM 76.6 °F 48.0 °F 36% 29.90 in 10.0 mi ESE 9.2 mph - N/A   Clear
3:35 PM 74.3 °F 46.8 °F 37% 29.90 in 10.0 mi ESE 8.1 mph - N/A   Clear
3:55 PM 74.3 °F 48.0 °F 39% 29.90 in 10.0 mi ESE 8.1 mph - N/A   Clear
4:15 PM 74.3 °F 48.0 °F 39% 29.90 in 10.0 mi ESE 9.2 mph - N/A   Clear
4:35 PM 73.0 °F 48.7 °F 42% 29.89 in 10.0 mi East 8.1 mph - N/A   Clear
4:55 PM 73.0 °F 48.7 °F 42% 29.90 in 10.0 mi ESE 8.1 mph - N/A   Clear
5:15 PM 71.8 °F 48.4 °F 43% 29.90 in 10.0 mi ESE 5.8 mph - N/A   Clear
5:35 PM 71.8 °F 49.1 °F 45% 29.90 in 10.0 mi East 4.6 mph - N/A   Clear
5:55 PM 71.8 °F 49.3 °F 45% 29.90 in 10.0 mi ESE 4.6 mph - N/A   Clear
6:15 PM 71.8 °F 50.0 °F 46% 29.91 in 10.0 mi ENE 3.5 mph - N/A   Clear
6:35 PM 71.8 °F 52.2 °F 50% 29.91 in 10.0 mi East 5.8 mph - N/A   Clear
6:55 PM 67.5 °F 51.8 °F 57% 29.90 in 10.0 mi ENE 5.8 mph - N/A   Clear
7:15 PM 64.9 °F 50.2 °F 59% 29.90 in 10.0 mi ENE 4.6 mph - N/A   Clear
7:35 PM 63.5 °F 50.5 °F 63% 29.91 in 10.0 mi NE 4.6 mph - N/A   Clear
7:55 PM 61.7 °F 50.9 °F 68% 29.92 in 7.0 mi NE 4.6 mph - N/A   Clear
8:15 PM 61.7 °F 51.6 °F 69% 29.92 in 7.0 mi NNE 5.8 mph - N/A   Scattered Clouds
8:35 PM 62.2 °F 51.4 °F 68% 29.92 in 10.0 mi ENE 4.6 mph - N/A   Scattered Clouds
8:55 PM 61.7 °F 51.3 °F 69% 29.92 in 10.0 mi NE 4.6 mph - N/A   Scattered Clouds
9:15 PM 61.7 °F 50.9 °F 68% 29.92 in 10.0 mi NE 4.6 mph - N/A   Clear
9:35 PM 59.9 °F 51.1 °F 73% 29.92 in 10.0 mi NE 4.6 mph - N/A   Clear
9:55 PM 59.4 °F 51.1 °F 74% 29.92 in 10.0 mi NE 4.6 mph - N/A   Clear
10:15 PM 59.2 °F 50.9 °F 74% 29.92 in 10.0 mi East 5.8 mph - N/A   Clear
10:35 PM 57.0 °F 50.2 °F 78% 29.92 in 10.0 mi NE 4.6 mph - N/A   Clear
10:55 PM 56.7 °F 49.8 °F 78% 29.92 in 10.0 mi NNE 3.5 mph - N/A   Clear
11:15 PM 57.6 °F 50.7 °F 78% 29.92 in 10.0 mi ENE 3.5 mph - N/A   Clear
11:35 PM 56.7 °F 50.2 °F 79% 29.93 in 10.0 mi NE 3.5 mph - N/A   Clear
11:55 PM 56.7 °F 50.7 °F 80% 29.93 in 10.0 mi Calm Calm - N/A   Clear